Flag for Austria Weather past 2 weeks in Mattersburg, Burgenland, Austria

Now
58 °F

Cool.


Feels Like: 58 °F
Forecast: 52 / 73 °F
Wind: 2 mph from Northeast

Location: Eisenstadt

Current Time: May 30, 2015 at 1:00:12 AM

Latest Report: May 30, 2015 at 12:00 AM


Visibility: N/A

Pressure: 29.86 "Hg

Humidity: 79%

Dew point: 51 °F

Location of MattersburgLocation

Historic Weather in Mattersburg — Graph

°F

Mattersburg temperature yesterday

Maximum temperature yesterday: 74 °F (at 4:00 PM)
Minimum temperature yesterday: 45 °F (at 5:00 AM)
Average temperature yesterday: 61 °F

Past Weeks' High & Low Weather Summary

 TemperatureHumidityPressure
High75 °F (May 19, 12:00 PM)95% (May 16, 12:00 AM)30.23 "Hg (May 16, 12:00 AM)
Low44 °F (May 28, 2:00 AM)41% (May 29, 5:00 PM)29.73 "Hg (May 19, 6:00 AM)
Average58 °F72%29.97 "Hg
* Reported May 14 10:00 PM — May 29 10:00 PM, Mattersburg, Weather by CustomWeather, © 2015

Note: Actual official high and low records may vary slightly from our data, if they occured in-between our weather recording intervals... More about our weather records

Advertising

Mattersburg weather history for previous 24 hours

 ConditionsComfort  
Time TempWeatherWind HumidityBarometerVisibility
10:00 PM
Fri, May 29
61 °FCool.1 mph75%29.87 "HgN/A
9:00 PM65 °FMild.1 mph66%29.86 "HgN/A
8:00 PM69 °FPartly sunny.2 mph57%29.86 "Hg12 mi
7:00 PM71 °FOvercast.5 mph51%29.86 "Hg12 mi
6:00 PM73 °FMild.5 mph44%29.87 "HgN/A
5:00 PM74 °FMild.7 mph41%29.88 "HgN/A
4:00 PM74 °FMild.6 mph42%29.89 "HgN/A
3:00 PM74 °FMild.6 mph43%29.91 "HgN/A
2:00 PM72 °FPassing clouds.5 mph42%29.93 "Hg12 mi
1:00 PM70 °FMild.5 mph49%29.95 "HgN/A
12:00 PM66 °FMild.3 mph55%29.96 "HgN/A
11:00 AM65 °FPassing clouds.3 mph59%29.98 "Hg12 mi
10:00 AM62 °FCool.2 mph64%29.99 "HgN/A
9:00 AM58 °FCool.1 mph70%30.00 "HgN/A
8:00 AM54 °FPassing clouds.1 mph79%30.01 "Hg9 mi
7:00 AM50 °FSunny.1 mph85%30.01 "Hg9 mi
6:00 AM46 °FPassing clouds.3 mph93%30.00 "Hg9 mi
5:00 AM45 °FPassing clouds.3 mph93%29.99 "Hg9 mi
4:00 AM46 °FClear.3 mph93%29.99 "Hg12 mi
3:00 AM46 °FCool.3 mph91%30.00 "HgN/A
2:00 AM47 °FClear.3 mph91%30.00 "Hg12 mi
1:00 AM47 °FCool.3 mph90%30.01 "HgN/A
Weather by CustomWeather, © 2015

See weather overviewHow to use our weather pages